Bluffton, MN

12:15 PM CDT on July 29, 2016 (GMT -0500)
Wadena Municipal

Weather History for KADC - February, 2013

Change the Weather History Date:

Thursday, February 28, 2013

  Actual Average Record
Temperature  
Mean Temperature 18 °F -  
Max Temperature 24 °F 29 °F 51 °F (1932)
Min Temperature 12 °F 10 °F -34 °F (1962)
Degree Days  
Heating Degree Days 47    
Moisture  
Dew Point 15 °F    
Average Humidity 77    
Maximum Humidity 86    
Minimum Humidity 63    
Precipitation  
Precipitation 0.00 in - - ()
Sea Level Pressure  
Sea Level Pressure 30.17 in    
Wind  
Wind Speed 8 mph (NNE)    
Max Wind Speed 15 mph    
Max Gust Speed 20 mph    
Visibility 10 miles    
Events      
Averages and records for this station are not official NWS values.
T = Trace of Precipitation, MM = Missing Value Source: NWS Daily Summary

Daily Weather History Graph

Daily Weather History Graph

Search for Another Location

Airport or City:

Trip Planner

Search our weather history database for the weather conditions in past years. The results will help you decide how hot, cold, wet, or windy it might be!

Date:

Astronomy

Feb. 28, 2013 Rise Set
Actual Time 7:01 AM CST 6:05 PM CST
Civil Twilight 6:31 AM CST 6:36 PM CST
Nautical Twilight 5:56 AM CST 7:11 PM CST
Astronomical Twilight 5:21 AM CST 7:46 PM CST
Moon 9:50 PM CST (2/28) 7:57 AM CST (2/28)
Length of Visible Light 12h 04m
Length of Day
11h 04m
Waning Gibbous, 90% of the Moon is Illuminated
Feb 28
Waning Gibbous
Mar 4
Last Quarter
Mar 11
New
Mar 19
First Quarter
Mar 27
Full

Hourly Weather History & Observations

Time (CST) Temp. Windchill Dew Point Humidity Pressure Visibility Wind Dir Wind Speed Gust Speed Precip Events Conditions
12:15 AM 24.8 °F 14.6 °F 17.6 °F 74% 30.08 in 10.0 mi NE 10.4 mph - N/A   Overcast
12:35 AM 24.8 °F 15.3 °F 17.6 °F 74% 30.09 in 10.0 mi NE 9.2 mph - N/A   Overcast
12:52 AM 24.8 °F 14.0 °F 17.6 °F 74% 30.09 in 10.0 mi NNE 11.5 mph 17.3 mph N/A   Overcast
1:15 AM 24.8 °F 15.3 °F 17.6 °F 74% 30.09 in 10.0 mi NNE 9.2 mph - N/A   Overcast
1:34 AM 24.8 °F 16.9 °F 17.6 °F 74% 30.10 in 10.0 mi NNE 6.9 mph - N/A   Overcast
1:53 AM 23.0 °F 13.1 °F 17.6 °F 80% 30.10 in 10.0 mi North 9.2 mph - N/A   Overcast
2:14 AM 23.0 °F 13.9 °F 17.6 °F 80% 30.11 in 10.0 mi North 8.1 mph - N/A   Overcast
2:35 AM 23.0 °F 11.1 °F 17.6 °F 80% 30.11 in 10.0 mi NNE 12.7 mph 16.1 mph N/A   Overcast
2:53 AM 23.0 °F 13.9 °F 17.6 °F 80% 30.11 in 10.0 mi NE 8.1 mph 19.6 mph N/A   Overcast
3:15 AM 23.0 °F 14.7 °F 17.6 °F 80% 30.12 in 10.0 mi NNE 6.9 mph - N/A   Overcast
3:35 AM 23.0 °F 14.7 °F 17.6 °F 80% 30.12 in 10.0 mi NNE 6.9 mph - N/A   Overcast
3:53 AM 23.0 °F 13.9 °F 17.6 °F 80% 30.12 in 10.0 mi North 8.1 mph - N/A   Overcast
4:15 AM 23.0 °F 12.4 °F 17.6 °F 80% 30.13 in 10.0 mi NNE 10.4 mph - N/A   Overcast
4:35 AM 21.2 °F 10.1 °F 17.6 °F 86% 30.13 in 10.0 mi North 10.4 mph - N/A   Overcast
4:53 AM 21.2 °F 7.8 °F 17.6 °F 86% 30.13 in 10.0 mi NNE 15.0 mph 18.4 mph N/A   Overcast
5:15 AM 21.2 °F 12.6 °F 17.6 °F 86% 30.14 in 10.0 mi NNE 6.9 mph - N/A   Overcast
5:35 AM 21.2 °F 8.3 °F 17.6 °F 86% 30.14 in 10.0 mi NNE 13.8 mph - N/A   Overcast
5:53 AM 21.2 °F 12.6 °F 17.6 °F 86% 30.14 in 10.0 mi NNE 6.9 mph - N/A   Overcast
6:15 AM 21.2 °F 12.6 °F 17.6 °F 86% 30.14 in 10.0 mi NNE 6.9 mph - N/A   Overcast
6:35 AM 21.2 °F 10.9 °F 17.6 °F 86% 30.15 in 10.0 mi North 9.2 mph - N/A   Overcast
6:52 AM 21.2 °F 11.7 °F 17.6 °F 86% 30.15 in 10.0 mi NNE 8.1 mph - N/A   Overcast
7:14 AM 21.2 °F 10.1 °F 17.6 °F 86% 30.16 in 10.0 mi NNE 10.4 mph - N/A   Overcast
7:35 AM 21.2 °F 11.7 °F 17.6 °F 86% 30.16 in 10.0 mi NNE 8.1 mph - N/A   Overcast
7:53 AM 21.2 °F 11.7 °F 15.8 °F 80% 30.17 in 10.0 mi NE 8.1 mph - N/A   Overcast
8:15 AM 21.2 °F 11.7 °F 15.8 °F 80% 30.17 in 10.0 mi NNE 8.1 mph - N/A   Overcast
8:35 AM 21.2 °F 10.1 °F 15.8 °F 80% 30.16 in 10.0 mi NNE 10.4 mph - N/A   Overcast
8:52 AM 21.2 °F 10.1 °F 15.8 °F 80% 30.17 in 10.0 mi NNE 10.4 mph - N/A   Overcast
9:14 AM 21.2 °F 10.9 °F 15.8 °F 80% 30.17 in 10.0 mi NE 9.2 mph - N/A   Overcast
9:34 AM 21.2 °F 11.7 °F 15.8 °F 80% 30.17 in 10.0 mi NE 8.1 mph - N/A   Overcast
9:53 AM 21.2 °F 12.6 °F 15.8 °F 80% 30.17 in 10.0 mi ENE 6.9 mph - N/A   Overcast
10:15 AM 21.2 °F 13.6 °F 15.8 °F 80% 30.18 in 10.0 mi ENE 5.8 mph - N/A   Overcast
10:35 AM 21.2 °F 10.9 °F 15.8 °F 80% 30.19 in 10.0 mi ENE 9.2 mph - N/A   Overcast
10:53 AM 21.2 °F 13.6 °F 15.8 °F 80% 30.19 in 10.0 mi ENE 5.8 mph - N/A   Overcast
11:15 AM 21.2 °F 10.9 °F 15.8 °F 80% 30.19 in 10.0 mi NE 9.2 mph - N/A   Overcast
11:35 AM 21.2 °F 10.1 °F 15.8 °F 80% 30.19 in 10.0 mi NE 10.4 mph - N/A   Overcast
11:52 AM 21.2 °F 10.9 °F 14.0 °F 74% 30.20 in 10.0 mi NE 9.2 mph - N/A   Overcast
12:15 PM 21.2 °F 10.9 °F 15.8 °F 80% 30.19 in 10.0 mi NE 9.2 mph - N/A   Overcast
12:35 PM 21.2 °F 12.6 °F 15.8 °F 80% 30.19 in 10.0 mi NNE 6.9 mph - N/A   Overcast
12:53 PM 23.0 °F 17.0 °F 15.8 °F 74% 30.19 in 10.0 mi NNE 4.6 mph - N/A   Overcast
1:15 PM 23.0 °F 17.0 °F 15.8 °F 74% 30.19 in 10.0 mi NE 4.6 mph - N/A   Overcast
1:35 PM 23.0 °F 13.9 °F 14.0 °F 68% 30.19 in 10.0 mi NE 8.1 mph - N/A   Overcast
1:53 PM 23.0 °F 14.7 °F 14.0 °F 68% 30.18 in 10.0 mi North 6.9 mph - N/A   Overcast
2:15 PM 23.0 °F 15.8 °F 14.0 °F 68% 30.18 in 10.0 mi NE 5.8 mph - N/A   Overcast
2:35 PM 23.0 °F 15.8 °F 14.0 °F 68% 30.18 in 10.0 mi NE 5.8 mph - N/A   Overcast
2:52 PM 23.0 °F 15.8 °F 14.0 °F 68% 30.18 in 10.0 mi NE 5.8 mph - N/A   Overcast
3:15 PM 23.0 °F 14.7 °F 14.0 °F 68% 30.19 in 10.0 mi NE 6.9 mph - N/A   Overcast
3:35 PM 23.0 °F 14.7 °F 14.0 °F 68% 30.19 in 10.0 mi ENE 6.9 mph - N/A   Overcast
3:53 PM 23.0 °F 18.4 °F 14.0 °F 68% 30.19 in 10.0 mi ENE 3.5 mph - N/A   Scattered Clouds
4:15 PM 23.0 °F 17.0 °F 12.2 °F 63% 30.19 in 10.0 mi NNE 4.6 mph - N/A   Scattered Clouds
4:34 PM 23.0 °F 14.7 °F 12.2 °F 63% 30.19 in 10.0 mi ENE 6.9 mph - N/A   Clear
4:53 PM 23.0 °F 18.4 °F 12.2 °F 63% 30.19 in 10.0 mi East 3.5 mph - N/A   Clear
5:15 PM 21.2 °F - 12.2 °F 68% 30.20 in 10.0 mi Calm Calm - N/A   Clear
5:52 PM 21.2 °F - 12.2 °F 68% 30.20 in 10.0 mi Calm Calm - N/A   Clear
6:15 PM 19.4 °F - 12.2 °F 74% 30.21 in 10.0 mi Calm Calm - N/A   Clear
6:35 PM 19.4 °F - 12.2 °F 74% 30.22 in 10.0 mi Calm Calm - N/A   Clear
6:53 PM 17.6 °F - 10.4 °F 73% 30.22 in 10.0 mi Calm Calm - N/A   Clear
7:14 PM 19.4 °F 14.3 °F 12.2 °F 74% 30.22 in 10.0 mi WNW 3.5 mph - N/A   Scattered Clouds
7:35 PM 17.6 °F 12.3 °F 12.2 °F 79% 30.22 in 10.0 mi NW 3.5 mph - N/A   Mostly Cloudy
7:53 PM 17.6 °F - 12.2 °F 79% 30.22 in 10.0 mi Calm Calm - N/A   Overcast
8:14 PM 15.8 °F - 10.4 °F 79% 30.22 in 10.0 mi Calm Calm - N/A   Scattered Clouds
8:35 PM 15.8 °F 10.2 °F 10.4 °F 79% 30.22 in 10.0 mi WNW 3.5 mph - N/A   Scattered Clouds
8:53 PM 15.8 °F 8.6 °F 10.4 °F 79% 30.23 in 10.0 mi WNW 4.6 mph - N/A   Scattered Clouds
9:14 PM 12.2 °F 4.3 °F 8.6 °F 85% 30.23 in 10.0 mi NW 4.6 mph - N/A   Clear
9:34 PM 17.6 °F 9.3 °F 10.4 °F 73% 30.23 in 10.0 mi WNW 5.8 mph - N/A   Clear
9:53 PM 15.8 °F 8.6 °F 10.4 °F 79% 30.23 in 10.0 mi NW 4.6 mph - N/A   Clear
10:15 PM 14.0 °F - 10.4 °F 86% 30.23 in 10.0 mi Calm Calm - N/A   Clear
10:53 PM 15.8 °F 7.2 °F 10.4 °F 79% 30.23 in 10.0 mi NW 5.8 mph - N/A   Mostly Cloudy
11:34 PM 15.8 °F 10.2 °F 8.6 °F 73% 30.23 in 10.0 mi NNE 3.5 mph - N/A   Clear
11:52 PM 17.6 °F 10.7 °F 10.4 °F 73% 30.23 in 10.0 mi NNE 4.6 mph - N/A   Clear